Showing default

OV1-13, 3173

Orbit data source: Space-Track

OV1-13, 3173 is a payload satellite owned by USAF OAR (US) that was launched on Sat, 06 Apr 1968 UTC via an ATLAS F launch vehicle from the Air Force Western Test Range (AFWTR). Payload-class satellites include a variety of spacecraft equipped with specific instruments for various scientific and technological missions. These include communications satellites like Starlink; space stations such as the ISS; scientific satellites like the Hubble; Earth observation satellites from companies like Planet Labs, Umbra, and HawkEye 360; GPS; miniature CubeSats for education and research; and military/defense satellites.

Loading next visibility...
Identifier
3173, 1968-026A
Orbit
Active
Country
Flag of USUS
Related business
Manufacturer
GD/Convair
Mission
Spacecraft
Bus & Motor
OV1, Unknown motor
Mass
107 kg wet, 107 kg dry
Launch date (UTC)
1968-04-06 (58 years ago)
Launch vehicle
ATLAS F
Launch site
Air Force Western Test Range (AFWTR)
Object type
Payload
Rocket body
Debris
Shape & HBR
Unknown
Radar Cross Section
Medium (>0.1 m² and <1 m²)

Expand to show TLE details & history
Last TLE update: 2 days ago

TLE from 2 days ago
0 OV1-13
1 03173U 68026A   26134.66723386  .00000042  00000-0  78160-4 0  9995
2 03173  99.9456  23.6280 3852190 319.2985  17.5327  7.25847343535779
Epoch: 2026-05-14T16:00Z
TLE epoch observation values (Epoch: 2026-05-14T16:00:49.005Z)
Latitude
-0.00005°
Longitude
-88.9858°
Altitude
1,053.866 km
Speed
8.481 km/s
True Right ascension
01h 34m 30s
True Declination
0° 00' 00"
Sunlit
Object was in daylight at epoch
Visualization orbit readout
Latitude
Unknown
Longitude
Unknown
Altitude
Unknown
Speed
Unknown
Apparent Right ascension
Unknown
Apparent Declination
Unknown
Sunlit
N/A
Visualization observer readout
Local Sidereal Time
20:08:18
Azimuth
Unknown
Elevation
Unknown
Doppler factor
Unknown
Orbital elements
Apogee altitude
9,227.078 km
Perigee altitude
547.692 km
Semi-major axis
11,265.522 km
Eccentricity
0.38522
Inclination
99.9456°
RAAN
23.628°
Arg. of periapsis
319.2985°
True anomaly
40.8139°
Mean anomaly
17.5327°
Eccentric anomaly
27.84022°
Mean motion
1.81517 °/min
Orbital period
198.33 mins
BSTAR
0.00007816
Loading maneuver chart data...
Computing Atmospheric mass density...
Loading historical data...
Loading historical data...
Loading historical data...
Loading historical data...
Loading historical data...
Loading historical data...
Loading historical data...
Other satellites on launch #26 in the year 1968 (1968-04-06 UTC)

Documentation

Showing up to 5 results
|